Regional Weather Roundup
Issued by NWS

Home | Current Version | Previous Version | Text Only | Print | Product List | Glossary On
Versions: 1 2 3 4 5 6 7 8 9 10 11 12 13 14 15 16 17 18 19 20 21 22 23 24 25 26 27 28 29 30 31 32 33 34 35 36 37 38 39 40 41 42 43 44 45 46 47 48 49 50
000
ASUS43 KMPX 261710
RWRMN
WEATHER ROUNDUP FOR MINNESOTA
NATIONAL WEATHER SERVICE TWIN CITIES/CHANHASSEN MN
1200 PM CDT SUN APR 26 2015


NOTE: "FAIR" INDICATES FEW OR NO CLOUDS BELOW 12,000 FEET WITH NO
SIGNIFICANT WEATHER AND/OR OBSTRUCTIONS TO VISIBILITY. N/A MEANS
CURRENT SKY AND/OR WEATHER CONDITIONS ARE NOT AVAILABLE.

MNZ060>063-068>070-261800-
   Twin Cities Metro

CITY           SKY/WX    TMP DP  RH WIND       PRES   REMARKS
TWIN CITIES    SUNNY     54  24  31 N6        30.13S
ST PAUL        SUNNY     53  22  29 S5        30.14S
CRYSTAL        SUNNY     53  23  31 S3        30.12F
BLAINE         SUNNY     55  25  30 E6        30.13S
LAKEVILLE      SUNNY     52  25  35 CALM      30.12S
EDEN PRAIRIE   SUNNY     56  27  32 VRB5      30.11S
SOUTH ST PAUL  SUNNY     54  25  32 CALM      30.13S
LAKE ELMO      FAIR      54  28  37 CALM      30.14S
$$
MNZ001>005-007-008-013>017-022>024-027-028-261800-
   Northwest Minnesota

CITY           SKY/WX    TMP DP  RH WIND       PRES   REMARKS
BEMIDJI        SUNNY     55  20  26 E5        30.15S
HALLOCK        MOSUNNY   63  10  13 S8G17     30.14R
ROSEAU         SUNNY     59  27  29 SE5       30.15S
WARROAD        SUNNY     52  30  43 NE7       30.17S
THIEF RVR FALL SUNNY     57  21  24 S3        30.15S
CROOKSTON      SUNNY     59  19  21 S9        30.15S
FOSSTON        SUNNY     61  27  27 CALM      30.14F
DETROIT LAKES  SUNNY     55  19  24 SE8       30.15S
MOORHEAD       SUNNY     61  12  15 SE7       30.14S
PARK RAPIDS    SUNNY     55  16  21 VRB3      30.14S
MAHNOMEN       FAIR      58  20  23 CALM      30.14S
$$
MNZ006-009>011-018-025>026-261800-
   North Central Minnesota

CITY           SKY/WX    TMP DP  RH WIND       PRES   REMARKS
BAUDETTE       SUNNY     56  18  22 SE3       30.16S
FLAG ISLAND    SUNNY     45  30  57 S3        30.17S
INTL FALLS     SUNNY     54  18  24 N9        30.18S
WASKISH        SUNNY     54  27  35 CALM      30.16S
BIG FORK       SUNNY     55  18  22 CALM      30.16F
LONGVILLE      SUNNY     55  16  21 NE3       30.15S
GRAND RAPIDS   SUNNY     52  18  25 E8        30.16F
CRANE LAKE     SUNNY     52  12  20 N3        30.20S
ORR            SUNNY     54  10  17 CALM      30.15S
COOK           SUNNY     52  18  25 CALM      30.17S
WALKER         FAIR      51  19  27 E6        30.16S
$$
MNZ012-019>021-037-261800-
   Northeast Minnesota

CITY           SKY/WX    TMP DP  RH WIND       PRES   REMARKS
DULUTH         SUNNY     49  20  31 SE13      30.16S
ELY            SUNNY     50  18  27 N6        30.16S
HIBBING        SUNNY     54  14  20 N8        30.15F
EVELETH        SUNNY     52  10  19 N3        30.16F
DULUTH HARBOR  SUNNY     41  28  60 NE6       30.21S
TWO HARBORS    SUNNY     50  30  46 E8        30.17R
SILVER BAY     SUNNY     50  23  34 E3        30.16F
GRAND MARAIS     N/A     40  29  64 SE3       30.20S
G MARAIS ARPRT SUNNY     48  21  34 S6        30.15S
$$
MNZ029>031-032-039>041-046>048-054>057-064-261800-
   West Central Minnesota

CITY           SKY/WX    TMP DP  RH WIND       PRES   REMARKS
FERGUS FALLS   SUNNY     57  10  15 SE9       30.14S
WHEATON        SUNNY     54  28  37 CALM      30.15R
MORRIS         SUNNY     59  21  23 E10       30.12R
ALEXANDRIA     SUNNY     55  18  23 E12       30.14S
ELBOW LAKE     FAIR      54  20  27 SE10      30.13S
WADENA         SUNNY     55  23  28 E7        30.13F
GLENWOOD       SUNNY     55  25  30 NE12G17   30.13S
APPLETON       SUNNY     57  25  28 NE6       30.12R
BENSON         SUNNY     57  12  17 E8        30.12R
ORTONVILLE     SUNNY     54  28  37 S3        30.12S
MADISON        SUNNY     55  28  35 CALM      30.12R
WILLMAR        FAIR      54  27  35 E7        30.13S
$$
MNZ033>034-036-042>043-049>051-058-059-261800-
   Central Minnesota

CITY           SKY/WX    TMP DP  RH WIND       PRES   REMARKS
ST CLOUD       SUNNY     52  22  30 E10       30.13S
SAUK CENTRE    FAIR      53  21  28 NE9       30.13S
PAYNESVILLE    SUNNY     50  24  36 N7        30.13S
AITKIN         SUNNY     55   9  15 E7        30.14S
PINE RIVER     SUNNY     54  23  30 SE7       30.18S
BRAINERD       SUNNY     53  15  22 NE7       30.15S
STAPLES        SUNNY     54  12  19 E8        30.14S
LONG PRAIRIE   FAIR      52  21  30 NE12      30.14S
LITTLE FALLS   SUNNY     54  16  22 E7        30.14R
LITCHFIELD     SUNNY     54  21  28 NE13      30.12S
BUFFALO        SUNNY     53  27  36 NE3       30.14S
MAPLE LAKE     SUNNY     54  29  37 E7        30.14S
$$
MNZ037-044-045-052-053-261800-
   East Central Minnesota

CITY           SKY/WX    TMP DP  RH WIND       PRES   REMARKS
PRINCETON      SUNNY     54  25  32 E7        30.14S
MORA           SUNNY     52  23  32 SE6       30.16S
CAMBRIDGE      SUNNY     54  32  43 E6        30.13S
RUSH CITY      SUNNY     54  25  33 N6        30.14S
MOOSE LAKE     SUNNY     54  23  30 CALM      30.14S
HINCKLEY       FAIR      54  21  28 E7        30.15S
CLOQUET        SUNNY     52  12  20 E6G17     30.16S
MCGREGOR       SUNNY     52  19  28 E7        30.16S
$$
MNZ071>073-080-081-089-090-097-098-261800-
   Southwest Minnesota

CITY           SKY/WX    TMP DP  RH WIND       PRES   REMARKS
MONTEVIDEO     SUNNY     59  28  31 E7        30.12S
GRANITE FALLS  SUNNY     56  27  32 NE8       30.11S
CANBY          SUNNY     55  32  41 N3        30.12S
MARSHALL       SUNNY     55  30  38 NE8       30.10S
REDWOOD FALLS  SUNNY     58  24  27 E9        30.09F
OLIVIA         SUNNY     54  21  28 NE9       30.09S
PIPESTONE      SUNNY     57  34  41 N5        30.08S
WINDOM         SUNNY     57  28  33 NE7       30.09S
WORTHINGTON    SUNNY     57  30  35 E3        30.09S
JACKSON        SUNNY     59  28  31 NE9G16    30.09S
TRACY          SUNNY     57  32  38 E6        30.10S
SLAYTON        SUNNY     56  30  36 CALM      30.10S
$$
MNZ065>067-074>077-082>085-091>093-261800-
   South Central Minnesota

CITY           SKY/WX    TMP DP  RH WIND       PRES   REMARKS
MANKATO        SUNNY     55  27  33 NE6       30.11S
NEW ULM        SUNNY     55  25  30 E7        30.10S
ST JAMES       SUNNY     57  27  30 NE8       30.10S
FAIRMONT       SUNNY     57  30  35 N5        30.08F
GLENCOE        SUNNY     55  32  41 NE8       30.10F
FARIBAULT      SUNNY     55  25  30 CALM      30.11S
OWATONNA       SUNNY     55  21  26 E7        30.11S
WASECA         SUNNY     55  25  30 NE5       30.11S
ALBERT LEA     SUNNY     54  25  32 S7        30.10R
$$
MNZ078>079-086>088-094>096-261800-
   Southeast Minnesota

CITY           SKY/WX    TMP DP  RH WIND       PRES   REMARKS
ROCHESTER      SUNNY     52  28  39 NE8       30.12S
RED WING       SUNNY     54  21  28 S7        30.12S
STANTON        SUNNY     56  24  28 E5        30.11S
DODGE CENTER   SUNNY     54  28  37 E7        30.11S
WINONA         SUNNY     54  28  37 CALM      30.12F
AUSTIN         SUNNY     52  27  37 CALM      30.11R
PRESTON        SUNNY     52  27  38 NE9       30.11S
$$
ABBREVIATIONS USED IN REMARKS
   TC - TEMPERATURES IN CELSIUS
  WCI - WIND CHILL INDEX
   HX - HEAT INDEX
  VSB - VISIBILITY
$$



USA.gov is the U.S. government's official web portal to all federal, state and local government web resources and services.